User: anonymous
Location: Deep South Regional Star Gaze
(30.9929°N, 90.9586°W)
Time: 18:55:18
(UTC-05:00)
Language:

MSX - Orbit

View from above orbital plane
View from above orbital plane
View from above satellite
View from above satellite

Ground track
Ground track

The orbit data is extracted from the following two-line orbital elements,

1 23851U 96024A   14107.83871613 0.00000100  00000-0  70546-4 0    00
2 23851  98.7906 156.6206 0010000 286.5661  73.4338 13.97965148    02
Epoch (UTC): 17 April 2014 20:07:45
Eccentricity: 0.0010000
inclination: 98.7906°
perigee height: 893 km
apogee height: 908 km
right ascension of ascending node: 156.6206°
argument of perigee: 286.5661°
revolutions per day: 13.97965148
mean anomaly at epoch: 73.4338°
orbit number at epoch: 0

The dashed part of the orbit path shows where the satellite is in the earth's shadow,  

DLR